Content
SEND FEEDBACK

Daily
Averages
Monthly
Summary
United States of America

MANGILAO, GUAM


Home > North America > United States > Guam
Elevation: 18 meters     Latitude: 13 27N     Longitude: 144 49E

WEATHER
 
SELECT A DAY
Number of Records: 337,293;   Date Range: 1/1/95 - 4/15/14
 
SHARE

PRINT THIS DATA

[ ← Previous Day ]
WEATHER ALMANAC - 21 JULY, 2013
[ Next Day → ]
[ °F ]   °C
Weather ElementAverageHighLow
Temperature27.4 °C30 °C (12:06 pm)24.4 °C (1:55 am)
Dewpoint25.3 °C28 °C (12:06 pm)21.9 °C (1:55 am)
Humidity88.4 %100 % (8:34 pm)66 % (1:55 pm)
Barometer1008.8 hPa1011.5 hPa (10:04 pm)1007.1 hPa (3:55 pm)
Wind Speed10.6 km/h18.5 km/h (8:55 pm)
Weather ElementAverage
Visibility14.8 km
Wind DirectionENE (72.3 °)

Weather ElementTotal
Precipitation4.83 mm
Cooling Degree Days8.9 (Base 18.3)
Growing Degree Days17.2 (Base 10)
Averaged from 73 records on 21 July, 2013
WEATHER CONDITIONS BREAKOUT
WIND DIRECTION BREAKOUT
WEATHER BY HOUR - 21 JULY, 2013
[ °F ]   °C
Local TimeTemperatureDewpointHumidityBarometerVisibilityWind DirectionWind SpeedGust SpeedPrecipitationEventsConditions
1:55 AM24.4 °C21.9 °C86 %1008.8 hPa16.1 kmCalmClear
2:55 AM24.4 °C21.9 °C86 %1008.5 hPa16.1 kmCalmClear
3:55 AM25 °C23.2 °C90 %1008.1 hPa16.1 kmCalmClear
4:26 AM25 °C23 °C89 %1008.5 hPa16.1 kmCalmLight Drizzle
4:31 AM25 °C23 °C89 %1008.5 hPa6.4 kmCalmRainRain
4:32 AM25 °C23 °C89 %1008.5 hPa4 kmCalmRainRain
4:34 AM25 °C23 °C89 %1008.5 hPa3.2 kmNorth (360°)5.6 km/hRainHeavy Rain
4:35 AM25 °C23 °C89 %1008.1 hPa2.9 kmNorth (10°)5.6 km/hRainHeavy Rain
4:41 AM25 °C22 °C83 %1008.1 hPa3.2 kmCalmRainLight Rain
4:42 AM25 °C22 °C83 %1008.1 hPa4 kmNNE (30°)5.6 km/hRainLight Rain
4:44 AM25 °C23 °C89 %1008.1 hPa4.8 kmNNE (30°)5.6 km/hRainLight Rain
4:55 AM25.4 °C23.5 °C89 %1008.1 hPa11.3 kmCalm3.05 mmRainLight Rain
5:18 AM25 °C24 °C94 %1008.1 hPa12.9 kmCalmLight Drizzle
5:23 AM25 °C24 °C94 %1008.5 hPa11.3 kmCalmRainLight Rain
5:54 AM25 °C23 °C89 %1008.1 hPa16.1 kmCalmLight Drizzle
5:55 AM25.1 °C22.6 °C86 %1008.1 hPa16.1 kmCalm1.78 mmMostly Cloudy
6:55 AM25.7 °C23.4 °C87 %1008.5 hPa16.1 kmCalmClear
7:55 AM27 °C25.3 °C90 %1009.1 hPa16.1 kmNNW (340°)5.6 km/hScattered Clouds
8:34 AM28 °C25 °C84 %1009.5 hPa16.1 kmESE (110°)7.4 km/hMostly Cloudy
8:36 AM28 °C25 °C84 %1009.5 hPa16.1 kmEast (100°)9.3 km/hScattered Clouds
8:55 AM28.1 °C25.6 °C86 %1009.5 hPa16.1 kmEast (100°)5.6 km/hScattered Clouds
9:48 AM29 °C27 °C89 %1009.1 hPa16.1 kmEast (100°)11.1 km/hMostly Cloudy
9:50 AM29 °C27 °C89 %1009.1 hPa16.1 kmESE (110°)11.1 km/hScattered Clouds
9:55 AM28.5 °C26.3 °C88 %1009.1 hPa16.1 kmSE (130°)11.1 km/hScattered Clouds
10:29 AM29 °C27 °C89 %1009.1 hPa16.1 kmEast (80°)5.6 km/hMostly Cloudy
10:51 AM29 °C27 °C89 %1009.1 hPa16.1 kmESE (120°)9.3 km/hScattered Clouds
10:55 AM29.6 °C27.1 °C86 %1008.8 hPa16.1 kmESE (110°)9.3 km/hScattered Clouds
11:55 AM29.5 °C27.5 °C89 %1008.5 hPa16.1 kmESE (110°)14.8 km/hScattered Clouds
11:57 AM29 °C27 °C89 %1008.5 hPa16.1 kmEast (100°)14.8 km/hMostly Cloudy
12:06 PM30 °C28 °C89 %1008.5 hPa16.1 kmSE (130°)16.7 km/hScattered Clouds
12:09 PM30 °C27 °C84 %1008.5 hPa16.1 kmSE (130°)16.7 km/hMostly Cloudy
12:22 PM29 °C27 °C89 %1008.5 hPa16.1 kmEast (100°)13 km/hMostly Cloudy
12:24 PM29 °C27 °C89 %1008.5 hPa16.1 kmENE (70°)14.8 km/hMostly Cloudy
12:26 PM29 °C27 °C89 %1008.5 hPa16.1 kmEast (80°)13 km/hMostly Cloudy
12:55 PM29.3 °C26.9 °C87 %1008.1 hPa16.1 kmEast (90°)13 km/hMostly Cloudy
1:55 PM29.6 °C22.7 °C66 %1007.5 hPa16.1 kmESE (120°)16.7 km/hScattered Clouds
2:17 PM30 °C23 °C66 %1007.5 hPa16.1 kmESE (120°)16.7 km/hMostly Cloudy
2:55 PM29.1 °C26.3 °C85 %1007.5 hPa16.1 kmEast (90°)14.8 km/hMostly Cloudy
3:03 PM29 °C26 °C84 %1007.5 hPa16.1 kmESE (120°)14.8 km/hLight Drizzle
3:16 PM28 °C24 °C79 %1007.5 hPa16.1 kmESE (110°)13 km/hMostly Cloudy
3:18 PM28 °C23 °C74 %1007.5 hPa16.1 kmEast (90°)14.8 km/hMostly Cloudy
3:22 PM28 °C25 °C84 %1007.5 hPa16.1 kmEast (90°)11.1 km/hMostly Cloudy
3:25 PM28 °C26 °C89 %1007.5 hPa16.1 kmEast (100°)13 km/hMostly Cloudy
3:26 PM29 °C26 °C84 %1007.5 hPa16.1 kmEast (100°)14.8 km/hMostly Cloudy
3:49 PM29 °C26 °C84 %1007.5 hPa16.1 kmEast (90°)14.8 km/hScattered Clouds
3:55 PM28.9 °C26.1 °C85 %1007.1 hPa16.1 kmEast (80°)14.8 km/h0 mmScattered Clouds
4:55 PM28.7 °C26.1 °C86 %1007.1 hPa16.1 kmENE (70°)13 km/hPartly Cloudy
5:13 PM28 °C26 °C89 %1007.5 hPa16.1 kmEast (80°)13 km/hMostly Cloudy
5:17 PM28 °C26 °C89 %1007.5 hPa16.1 kmENE (70°)13 km/hScattered Clouds
5:22 PM28 °C26 °C89 %1007.5 hPa16.1 kmENE (70°)11.1 km/hMostly Cloudy
5:38 PM28 °C26 °C89 %1007.5 hPa16.1 kmENE (60°)14.8 km/hMostly Cloudy
5:55 PM28.1 °C26.6 °C91 %1007.8 hPa16.1 kmNNE (30°)13 km/hScattered Clouds
6:55 PM27.5 °C26.4 °C94 %1008.5 hPa16.1 kmNE (40°)9.3 km/hClear
7:58 PM28 °C26 °C89 %1009.1 hPa16.1 kmNE (50°)14.8 km/hMostly Cloudy
8:01 PM28 °C26 °C89 %1009.1 hPa16.1 kmENE (60°)16.7 km/hScattered Clouds
8:32 PM27 °C26 °C94 %1009.5 hPa16.1 kmENE (60°)16.7 km/hMostly Cloudy
8:34 PM27 °C27 °C100 %1009.5 hPa14.5 kmNE (40°)14.8 km/hRainRain
8:44 PM27 °C27 °C100 %1009.5 hPa16.1 kmNE (40°)11.1 km/hMostly Cloudy
8:49 PM27 °C27 °C100 %1009.5 hPa16.1 kmENE (60°)13 km/hOvercast
8:54 PM27 °C27 °C100 %1009.5 hPa16.1 kmENE (60°)16.7 km/hOvercast
8:55 PM27.2 °C26.8 °C98 %1009.5 hPa16.1 kmENE (60°)18.5 km/h0 mmOvercast
9:06 PM27 °C26 °C94 %1009.5 hPa16.1 kmENE (60°)16.7 km/hScattered Clouds
9:08 PM27 °C26 °C94 %1009.5 hPa16.1 kmENE (60°)18.5 km/hMostly Cloudy
9:12 PM27 °C26 °C94 %1009.5 hPa16.1 kmENE (60°)16.7 km/hScattered Clouds
9:55 PM26.9 °C26.2 °C96 %1009.8 hPa16.1 kmENE (60°)14.8 km/hScattered Clouds
9:59 PM27 °C26 °C94 %1009.8 hPa16.1 kmENE (60°)14.8 km/hMostly Cloudy
10:04 PM27 °C24 °C84 %1011.5 hPa16.1 kmENE (60°)11.1 km/hScattered Clouds
10:55 PM26.9 °C26.4 °C97 %1010.2 hPa16.1 kmENE (60°)13 km/hScattered Clouds
11:03 PM27 °C25 °C89 %1010.2 hPa16.1 kmEast (80°)13 km/hMostly Cloudy
11:10 PM27 °C25 °C89 %1010.2 hPa16.1 kmEast (100°)11.1 km/hLight Drizzle
11:22 PM27 °C24 °C84 %1010.2 hPa16.1 kmENE (60°)16.7 km/hMostly Cloudy
11:24 PM27 °C24 °C84 %1010.2 hPa16.1 kmENE (60°)14.8 km/hScattered Clouds
11:55 PM26.4 °C26.2 °C99 %1009.8 hPa16.1 kmENE (60°)16.7 km/h0 mmClear
Hourly data recorded from PGUA, located 5.71 kilometers away from Mangilao, Guam







STORIES FROM OUR PARTNERS